Skip Page Navigation
NASA JPL Caltech
NASA Logo - Jet Propulsion Laboratory + View the NASA Portal
+ Near-Earth Object (NEO) Program
Search JPL
JPL Home Earth Solar System Stars & Galaxies Technology
JPL Solar System Dynamics
BODIES ORBITS EPHEMERIDES TOOLS PHYSICAL DATA DISCOVERY FAQ SITE MAP
JPL Small-Body Database Browser
Search: [ help ]  
27492 Susanduncan (2000 GN104)
Classification: Main-belt Asteroid          SPK-ID: 2027492
Ephemeris | Orbit Diagram | Orbital Elements | Physical Parameters | Discovery Circumstances | Close-Approach Data ]

[ show orbit diagram ]
Orbital Elements at Epoch 2457000.5 (2014-Dec-09.0) TDB
Reference: JPL 11 (heliocentric ecliptic J2000)
 Element Value Uncertainty (1-sigma)   Units 
e .0937338314278576 6.6712e-08  
a 2.531640626383367 2.0791e-08 AU
q 2.294340250674033 1.6927e-07 AU
i 3.111073290626842 5.684e-06 deg
node 120.5376025786963 0.00011846 deg
peri 291.1614619755716 0.00012268 deg
M 18.87499461007386 3.0573e-05 deg
tp 2456923.358896532391
(2014-Sep-22.85889653)
0.00012505 JED
period 1471.300936611537
4.03
1.8124e-05
4.962e-08
d
yr
n .2446814183569365 3.0141e-09 deg/d
Q 2.768941002092701 2.274e-08 AU
  Orbit Determination Parameters
   # obs. used (total)      996  
   data-arc span      8353 days (22.87 yr)  
   first obs. used      1992-04-07  
   last obs. used      2015-02-19  
   planetary ephem.      DE431  
   SB-pert. ephem.      SB431-BIG16  
   condition code      0  
   fit RMS      .51527  
   data source      ORB  
   producer      Otto Matic  
   solution date      2015-Mar-09 15:26:11  

Additional Information
 Earth MOID = 1.30697 AU 
 T_jup = 3.442 
[ show covariance matrix ]

Ephemeris | Orbit Diagram | Orbital Elements | Physical Parameters | Discovery Circumstances | Close-Approach Data ]

Physical Parameter Table
Parameter Symbol Value Units Sigma Reference Notes
absolute magnitude H 14.1 mag n/a PDS3 (MPO 14678)  

27492 Susanduncan           Discovered 2000 Apr. 7 by the Lincoln Laboratory Near-Earth Asteroid Research Team at Socorro.
Susan Duncan mentored a finalist in the 2011 Broadcom MASTERS, a math and science competition for middle-school students. She teaches at the Summa North at Meadow Park Middle School, Beaverton, Oregon.
NOTE: some special characters may not display properly (any characters within {} are an attempt to place the proper accent above a character)
Reference: 20111210/MPCPages.arcLast Updated: 2011-12-12

[ show close-approach data ]
Ephemeris | Orbit Diagram | Orbital Elements | Physical Parameters | Discovery Circumstances | Close-Approach Data ]
ABOUT SSD CREDITS/AWARDS PRIVACY/COPYRIGHT GLOSSARY LINKS
FirstGov 2015-Mar-26 23:44 UT
(server date/time)  
NASA Home Page
Site Manager:   Ryan S. Park
Webmaster  Alan B. Chamberlin